Home   Weather   Daegu   Past weeks

Flag for South Korea Past Weather in Daegu, South Korea — Yesterday and Last 2 Weeks

Now
63 °F

Passing clouds.


Feels Like: 63 °F
Forecast: 62 / 65 °F
Wind: 1 mph from Northeast

Location: Taegu Ab

Current Time: Sep 30, 2016 at 2:10:04 AM

Latest Report: Sep 30, 2016 at 1:00 AM


Visibility: N/A

Pressure: 30.04 "Hg

Humidity: 83%

Dew Point: 57 °F

Location of DaeguLocation

Past Weather in Daegu — Graph

°F

Daegu Temperature Yesterday

Maximum temperature yesterday: 70 °F (at 12:00 AM)
Minimum temperature yesterday: 64 °F (at 6:00 AM)
Average temperature yesterday: 67 °F

High & Low Weather Summary for the Past Weeks

 TemperatureHumidityPressure
High86 °F (Sep 27, 2:00 PM)100% (Sep 17, 3:00 AM)30.15 "Hg (Sep 17, 3:00 AM)
Low54 °F (Sep 21, 5:00 AM)37% (Sep 24, 3:00 PM)29.77 "Hg (Sep 17, 4:00 PM)
Average70 °F78%29.97 "Hg
* Reported Sep 15 1:00 AM — Sep 30 1:00 AM, Daegu, Weather by CustomWeather, © 2016

Note: Actual official high and low records may vary slightly from our data, if they occured in-between our weather recording intervals... More about our weather records

Advertising

Daegu Weather History for the Previous 24 Hours

Scroll right to see more
 ConditionsComfort  
Time TempWeatherWind HumidityBarometerVisibility
1:00 AM
Fri, Sep 30
63 °FPassing clouds.1 mph83%30.04 "HgN/A
12:00 AM63 °FPartly cloudy.1 mph83%30.07 "HgN/A
11:00 PM
Thu, Sep 29
64 °FPartly cloudy.1 mph78%30.07 "HgN/A
10:00 PM64 °FPassing clouds.1 mph73%30.07 "HgN/A
9:00 PM66 °FPassing clouds.5 mph68%30.07 "HgN/A
8:00 PM66 °FPassing clouds.6 mph68%30.07 "HgN/A
7:00 PM66 °FPassing clouds.7 mph68%30.04 "HgN/A
6:00 PM66 °FPartly sunny.7 mph68%30.04 "HgN/A
5:00 PM68 °FPartly sunny.6 mph64%30.04 "HgN/A
4:00 PM68 °FPartly sunny.7 mph64%30.04 "HgN/A
3:00 PM68 °FPartly sunny.9 mph64%30.04 "HgN/A
2:00 PM68 °FPartly sunny.9 mph69%30.04 "HgN/A
1:00 PM68 °FPartly sunny.8 mph64%30.04 "HgN/A
12:00 PM68 °FPartly sunny.8 mph69%30.07 "HgN/A
11:00 AM66 °FPartly sunny.9 mph78%30.07 "HgN/A
10:00 AM66 °FMostly cloudy.10 mph78%30.07 "HgN/A
9:00 AM64 °FLight rain. Mostly cloudy.9 mph88%30.04 "HgN/A
8:00 AM64 °FLight rain. Cloudy.9 mph88%30.04 "HgN/A
7:00 AM64 °FLight rain. Mostly cloudy.9 mph88%30.01 "HgN/A
6:00 AM64 °FLight rain. Mostly cloudy.13 mph88%29.98 "HgN/A
5:00 AM66 °FLight rain. Mostly cloudy.12 mph88%29.98 "HgN/A
4:00 AM68 °FOvercast.12 mph83%29.95 "HgN/A
3:00 AM68 °FMostly cloudy.10 mph88%29.95 "HgN/A
2:00 AM68 °FMostly cloudy.9 mph88%29.95 "HgN/A
Weather by CustomWeather, © 2016

See weather overviewHow to use our weather pages